Voltar ao catálogo

STARLINK-35863

AtivoComunicaçõesVLEO
NORAD 67170·PAYLOAD·🇺🇸 United States

Lançado Dec 17, 2025 de Cape Canaveral Space Force Station

Loading…

Próximas Passagens (próximas 24 horas)

TLE

AtualizadoSource: CelesTrak SupGP

Época: Sep 14, 2026, 23:05 UTC

1 67170C 25303H   26257.96229167 -.00002616  00000+0 -94782-4 0  2575
2 67170  43.0007 322.0800 0001562 268.4068 276.3082 15.27572135    17

Acompanhe STARLINK-35863 em tempo real com AllMySat

Download on the App Store